Regional Weather Roundup
Issued by NWS

Home | Current Version | Previous Version | Text Only | Print | Product List | Glossary On
Versions: 1 2 3 4 5 6 7 8 9 10 11 12 13 14 15 16 17 18 19 20 21 22 23 24 25 26 27 28 29 30 31 32 33 34 35 36 37 38 39 40 41 42 43 44 45 46 47 48 49 50
000
ASUS42 KTBW 291910
RWRFL
FLORIDA REGIONAL WEATHER ROUNDUP
NATIONAL WEATHER SERVICE TAMPA BAY RUSKIN FL
300 PM EDT TUE JUL 29 2014

NOTE: "FAIR" INDICATES FEW OR NO CLOUDS BELOW 12,000 FEET WITH NO
SIGNIFICANT WEATHER AND/OR OBSTRUCTIONS TO VISIBILITY.


FLZ001>010-012>015-112-114-115-292000-
PANHANDLE FLORIDA

CITY           SKY/WX    TMP DP  RH WIND       PRES   REMARKS
PENSACOLA      MOSUNNY   85  62  46 N12       30.00F
PENSACOLA NAS  PTSUNNY   88  64  44 NW6G16    30.00F
MILTON NAS     MOSUNNY   87  63  44 N6        30.00F
CRESTVIEW      MOSUNNY   89  64  43 VRB7      30.01F
DUKE FIELD     MOSUNNY   87  67  50 N10G17    29.99F
VALPARAISO     MOSUNNY   89  61  39 N5        29.99S
MARY ESTHER    MOSUNNY   87  61  41 S10       29.98F
TRI COUNTY     FAIR      88  63  43 VRB3      29.99F
PANAMA CITY    FAIR      89  64  43 W10       29.96F
TYNDALL AFB    SUNNY     89  71  55 W14       29.97F
APALACHICOLA   PTSUNNY   85  70  60 S13       29.96S

STATION/POSITION SKY/WX   TEMP    WIND        PRES    WAVE   SWELL
                          AIR SEA DIR/SP/G            HT/PER HT/PER
                          (F)     (DEG/KT/KT) (MB)    (FT/S) (FT/S)
30.1N   87.6W              82 85  280/  4/  6 1016.6F   1/ 3
29.2N   88.2W              82 87   10/ 12/ 14 1016.6F
28.8N   86.0W              82 85  300/ 14/ 16 1014.8    4/ 6
PANAMA CITY BEAC           82 78  250/ 14/ 15 1015.0F
CAPE SAN BLAS    NOT AVBL
TOWER C                    81      CALM  /  2 1014.8F
28.5N   84.5W              83 85  270/ 14/ 16 1015.1F   4/ 6   2/ 9

$$
FLZ011-016>038-118-127-128-134-139-239-292000-
NORTH FLORIDA

CITY           SKY/WX    TMP DP  RH WIND       PRES   REMARKS
MARIANNA       MOSUNNY   88  64  44 NW7       29.97F
TALLAHASSEE    PTSUNNY   92  63  38 W13G18    29.95F
PERRY          MOSUNNY   88  66  48 N6        29.94F
CROSS CITY       N/A     93  71  48 NW7       29.92F HX 100
GAINESVILLE    MOSUNNY   91  72  53 W12G22    29.91F HX  98
MAYPORT NAS    MOSUNNY   94  65  38 CALM      29.89F HX  96
JACKSONVILLE   MOSUNNY   93  65  39 W10       29.89F HX  95
JAX NAS        MOSUNNY   93  67  42 E5        29.91F HX  96
JAX CRAIG      PTSUNNY   91  68  46 N8        29.90F HX  95
JAX CECIL      MOSUNNY   93  68  43 NW8       29.90F HX  97
FERNANDINA BEA FAIR      88  72  58 E6        29.89S
ST AUGUSTINE   MOSUNNY   96  69  41 VRB5      29.91F HX 102

STATION/POSITION SKY/WX   TEMP    WIND        PRES    WAVE   SWELL
                          AIR SEA DIR/SP/G            HT/PER HT/PER
                          (F)     (DEG/KT/KT) (MB)    (FT/S) (FT/S)
SHELL POINT                87     200/  3/  5   N/A
KEATON BEACH               85     270/ 10/ 13 1014.0F
CEDAR KEY                  84     280/  6/  7 1014.8S
FERNANDINA                 89 86  200/  4/  7 1011.9F
30.7N   81.3W                 87                N/A     1/ 9
MAYPORT                    90 85  260/  4/ 10   N/A
31.4N   80.9W              82 87   20/  6/  8 1012.6F   2/ 4   2/ 8
ST AUGUSTINE               83      90/  7/  8 1013.5F

$$
FLZ040-043>046-052-053-057-058-063-144-292000-
INTERIOR CENTRAL FLORIDA

CITY           SKY/WX    TMP DP  RH WIND       PRES   REMARKS
OCALA          MOSUNNY   91  70  49 SW14      29.93F HX  97
LEESBURG       MOSUNNY   91  75  59 W9        29.93F HX 101
SANFORD        MOSUNNY   88  77  69 SW8       29.93F HX 100
ORLANDO EXEC   MOSUNNY   90  74  59 SW13      29.93F HX  99
ORLANDO INTL   PTSUNNY   90  73  57 SW14G21   29.93F HX  98
KISSIMMEE      MOSUNNY   90  75  62 W13G21    29.95F HX 100
WINTER HAVEN   PTSUNNY   87  74  64 W13       29.97F HX  95
LAKELAND       PTSUNNY   82  75  78 W6        29.98F
BARTOW         MOSUNNY   88  72  58 W14G20    29.98F
OKEECHOBEE       N/A     79  73  83 MISG      29.98F

$$
FLZ041-047-054-059-064-141-147-292000-
EAST CENTRAL FLORIDA

CITY           SKY/WX    TMP DP  RH WIND       PRES   REMARKS
ORMOND BEACH   MOSUNNY   81  75  83 W12       29.93F
DAYTONA BEACH  PTSUNNY   83  76  79 CALM      29.93F
DELAND         PTCLDY    84  77  79 MISG      29.94F
NEW SMYRNA BEA PTSUNNY   75  73  94 SW6       29.94F
JFK SPACE CTR  CLOUDY    81  81  98 W5        29.94F
TITUSVILLE     PTSUNNY   81  75  83 W9        29.95F
CAPE CANAVERAL CLOUDY    82  75  78 W6        29.93F
PATRICK AFB    CLOUDY    87  77  72 W7        29.94F HX  99
MELBOURNE      CLOUDY    85  76  74 SW8       29.94F
VERO BEACH     CLOUDY    75  73  93 CALM      29.98S
FT PIERCE      CLOUDY    77  69  76 SW3       29.99R
STUART         PTSUNNY   81  66  61 NW12G22   29.99S

STATION/POSITION SKY/WX   TEMP    WIND        PRES    WAVE   SWELL
                          AIR SEA DIR/SP/G            HT/PER HT/PER
                          (F)     (DEG/KT/KT) (MB)    (FT/S) (FT/S)
28.5N   80.2W              81 83  300/  8/ 10 1014.2F
28.9N   78.5W              84 84  250/ 12/ 14 1014.0F   5/ 6   3/ 9
TRIDENT PIER               83 85  260/  5/  7 1013.6S
28.4N   80.5W                 83                N/A     1/ 8
27.6N   80.2W                 82                N/A     1/ 2

$$
FLZ050-056-061-142-242-148-248-149-249-151-251-155-255-
160-260-292000-
WEST CENTRAL FLORIDA

CITY           SKY/WX    TMP DP  RH WIND       PRES   REMARKS
CRYSTAL RIVER  FAIR      88  73  62 W14G20    29.95F HX  96
INVERNESS      FAIR      90  72  55 W9        29.94F HX  96
BROOKSVILLE    MOSUNNY   89  78  70 W15       29.96F HX 103
ZEPHYRHILLS    FAIR      86  79  79 SW8       29.97F HX  99
CLEARWATER     CLOUDY    88  77  69 W15       29.97F HX 100
TAMPA INTL     PTSUNNY   87  76  69 SW13      29.97F HX  97
TAMPA EXEC     PTSUNNY   90  75  62 SW5       29.97F HX 100
PLANT CITY     PTSUNNY   88  81  79 SW9       29.99F HX 105
MACDILL AFB    CLOUDY    89  78  70 W10       29.97F HX 102
ST PETERSBURG  LGT RAIN  85  72  65 W13       29.96S
SARASOTA       CLOUDY    89  74  60 W15       29.97F HX  98
VENICE         TSTM      82  73  74 NW12G31   29.99F

STATION/POSITION SKY/WX   TEMP    WIND        PRES    WAVE   SWELL
                          AIR SEA DIR/SP/G            HT/PER HT/PER
                          (F)     (DEG/KT/KT) (MB)    (FT/S) (FT/S)
CEDAR KEY                  84     280/  6/  7 1014.8S
28.5N   84.5W              83 85  270/ 14/ 16 1015.1F   4/ 6   2/ 9
27.3N   84.3W                 86                N/A     5/ 6
CLEARWATER BEACH           85 87  270/ 17/ 19 1014.7F
MIDDLE TAMPA BAY           85     290/ 15/ 17 1015.4F
VENICE                     85 89  310/ 13/ 16 1015.0F

$$
FLZ066-069-070-075>078-162-262-165-265-292000-
SOUTHWEST FLORIDA AND KEYS

CITY           SKY/WX    TMP DP  RH WIND       PRES   REMARKS
PUNTA GORDA    CLOUDY    91  75  59 W14       30.00F HX 101
FT MYERS       CLOUDY    89  75  63 W13       29.98F HX  99
SOUTHWEST INTL LGT RAIN  83  71  67 NW6G20    29.99F
NAPLES         PTSUNNY   89  81  77 W13       30.00F HX 108
MARATHON       MOSUNNY   94  76  55 NW7       30.02F HX 106
KEY WEST NAS   PTSUNNY   92  73  53 W12       30.02F HX 100
KEY WEST INTL  MOSUNNY   90  73  57 NW10      30.03F HX  98

STATION/POSITION SKY/WX   TEMP    WIND        PRES    WAVE   SWELL
                          AIR SEA DIR/SP/G            HT/PER HT/PER
                          (F)     (DEG/KT/KT) (MB)    (FT/S) (FT/S)
VENICE                     85 89  310/ 13/ 16 1015.0F
NAPLES                     87 93              1016.6F
DRY TORTUGAS               86     310/ 10/ 12 1017.0F
NW FL BAY                  88     280/  9/ 11 1017.2F
SAND KEY                   85     260/  7/ 12 1017.0F
SOMBRERO KEY               86     250/ 11/ 13 1017.2F
LONG KEY                   87 92  280/ 11/ 12 1017.7F
MOLASSES REEF              85 87  220/ 10/ 11 1016.2F

$$
FLZ067-068-071>074-168-172>174-292000-
SOUTHEAST FLORIDA

CITY           SKY/WX    TMP DP  RH WIND       PRES   REMARKS
W PALM BEACH   PTSUNNY   85  76  74 NE6       29.95F THUNDER
FT LAUDER-EXEC MOSUNNY   95  72  47 W10       29.96F HX 103
FT LAUDERDALE  MOSUNNY   94  70  45 SW14      29.96F HX 100
POMPANO BEACH  MOSUNNY  N/A N/A N/A MISG      29.96F
PEMBROKE PINES SUNNY     93  72  50 SW10G17   29.98F HX 101
OPA LOCKA      MOSUNNY   94  72  48 SW13      29.98F HX 102
MIAMI          PTSUNNY   93  72  50 SW12      29.99F HX 101
WEST KENDALL   PTSUNNY   95  73  48 SW14      29.99F HX 104
HOMESTEAD      SUNNY     91  75  59 VRB3      29.99F HX 102

STATION/POSITION SKY/WX   TEMP    WIND        PRES    WAVE   SWELL
                          AIR SEA DIR/SP/G            HT/PER HT/PER
                          (F)     (DEG/KT/KT) (MB)    (FT/S) (FT/S)
PORT EVERGLADES            92     210/  8/ 13 1014.7
VIRGINIA KEY               86 89  150/ 11/ 14   N/A
FOWEY ROCKS                87 87  160/ 12/ 13 1016.2F
SETTLEMENT POINT           85     200/ 12/ 13 1016.0F

$$



USA.gov is the U.S. government's official web portal to all federal, state and local government web resources and services.